Location: Unspecified
(0.0000°N, 0.0000°E)
Time: 09:56:31
(UTC+00:00)

Vanguard 3 - All Passes

Search period start: 24 September 2023 00:00
Search period end: 04 October 2023 00:00
Orbit: 508 x 3242 km, 33.3° (Epoch: 23 September)

Date Brightness Start Highest point End Pass type
(mag) Time Alt. Az. Time Alt. Az. Time Alt. Az.
24 Sep - 02:40:55 10° N 02:44:17 21° NE 02:48:48 10° E visible
24 Sep - 04:50:14 10° WNW 04:55:40 52° SSW 05:05:10 10° SE visible
24 Sep - 07:04:26 10° WSW 07:10:49 20° SSW 07:19:45 10° SSE daylight
24 Sep - 09:23:12 10° SSW 09:30:20 14° S 09:38:43 10° SSE daylight
24 Sep - 11:38:57 10° SSW 11:52:26 23° SSE 12:06:09 10° ESE daylight
24 Sep - 13:53:28 10° SW 14:12:20 48° SSE 14:26:46 10° E daylight
24 Sep - 16:10:13 10° WSW 16:28:51 76° NW 16:40:11 10° NE daylight
24 Sep - 18:32:33 10° W 18:42:22 22° NW 18:49:09 10° N visible
25 Sep - 03:34:21 10° NW 03:38:49 74° NE 03:46:17 10° ESE visible
25 Sep - 05:46:20 10° WSW 05:51:59 26° SSW 06:00:40 10° SSE daylight
25 Sep - 08:03:41 10° SSW 08:09:10 14° S 08:15:53 10° SSE daylight
25 Sep - 10:20:43 10° SSW 10:30:24 17° SSE 10:41:18 10° SE daylight
25 Sep - 12:34:38 10° SSW 12:51:27 35° SSE 13:06:47 10° E daylight
25 Sep - 14:49:43 10° SW 15:09:38 75° SE 15:23:16 10° ENE daylight
25 Sep - 17:08:51 10° WSW 17:24:35 44° NW 17:34:25 10° NNE daylight
26 Sep - 02:19:25 10° NNW 02:22:44 24° NE 02:27:03 10° E visible
26 Sep - 04:29:18 10° W 04:34:10 41° SSW 04:42:12 10° SE visible
26 Sep - 06:44:19 10° SW 06:49:16 15° SSW 06:55:42 10° SSE daylight
26 Sep - 09:02:43 10° SSW 09:08:33 13° S 09:15:18 10° SSE daylight
26 Sep - 11:16:29 10° SSW 11:30:01 24° SSE 11:44:20 10° ESE daylight
26 Sep - 13:30:17 10° SW 13:49:28 53° SSE 14:05:01 10° ENE daylight
26 Sep - 15:46:56 10° WSW 16:06:07 71° NW 16:18:28 10° NE daylight
26 Sep - 18:09:54 10° W 18:20:15 22° NW 18:27:34 10° N visible
27 Sep - 03:13:10 10° NW 03:17:19 89° SW 03:23:55 10° SE visible
27 Sep - 05:25:52 10° WSW 05:30:31 20° SSW 05:37:08 10° SSE visible
27 Sep - 07:44:26 10° SSW 07:47:35 11° S 07:51:09 10° SSE daylight
27 Sep - 09:59:01 10° SSW 10:08:19 17° SSE 10:19:02 10° SE daylight
27 Sep - 12:11:46 10° SSW 12:28:40 37° SSE 12:44:56 10° E daylight
27 Sep - 14:26:29 10° SW 14:46:41 81° SE 15:01:27 10° ENE daylight
27 Sep - 16:45:47 10° WSW 17:02:03 41° NW 17:12:42 10° NNE daylight
28 Sep - 01:57:54 10° NNW 02:01:12 28° NE 02:05:23 10° E visible
28 Sep - 04:08:29 10° W 04:12:45 31° SSW 04:19:16 10° SSE visible
28 Sep - 06:24:59 10° SSW 06:27:48 12° S 06:31:05 10° S daylight
28 Sep - 08:42:28 10° S 08:46:49 12° S 08:51:43 10° SSE daylight
28 Sep - 10:54:06 10° SSW 11:07:30 26° SSE 11:22:20 10° ESE daylight
28 Sep - 13:07:15 10° SW 13:26:27 58° SE 13:43:04 10° ENE daylight
28 Sep - 15:23:45 10° WSW 15:43:14 66° NW 15:56:38 10° NE daylight
28 Sep - 17:47:14 10° W 17:58:04 22° NW 18:05:55 10° N daylight
29 Sep - 02:52:00 10° WNW 02:55:54 68° SW 03:01:38 10° SE visible
29 Sep - 05:05:46 10° SW 05:09:08 15° SSW 05:13:24 10° SSE visible
29 Sep - 09:37:19 10° SSW 09:46:13 17° SSE 09:56:43 10° SE daylight
29 Sep - 11:49:04 10° SSW 12:05:46 40° SSE 12:22:52 10° E daylight
29 Sep - 14:03:23 10° SW 14:23:36 87° SE 14:39:27 10° NE daylight
29 Sep - 16:22:47 10° W 16:39:26 39° NW 16:50:53 10° NNE daylight
30 Sep - 01:36:21 10° NNW 01:39:45 35° NE 01:43:47 10° ESE night (unlit)
30 Sep - 03:47:48 10° WSW 03:51:24 22° SSW 03:56:23 10° SSE visible
30 Sep - 08:22:47 10° S 08:25:06 10° SSE 08:27:36 10° SSE daylight
30 Sep - 10:31:48 10° SSW 10:44:56 27° SSE 11:00:09 10° E daylight
30 Sep - 12:44:22 10° SW 13:03:18 63° SE 13:20:55 10° ENE daylight
30 Sep - 15:00:41 10° WSW 15:20:14 62° NW 15:34:37 10° NE daylight
30 Sep - 17:24:36 10° WNW 17:35:50 21° NW 17:44:12 10° N daylight
01 Oct - 00:22:25 10° NNE 00:23:24 11° NNE 00:24:23 10° NE night (unlit)
01 Oct - 02:30:53 10° WNW 02:34:32 48° SSW 02:39:26 10° SE visible
01 Oct - 09:15:36 10° SSW 09:24:06 17° SSE 09:34:18 10° ESE daylight
01 Oct - 11:26:29 10° SSW 11:42:47 43° SE 12:00:35 10° E daylight
01 Oct - 13:40:26 10° SW 14:00:22 88° NW 14:17:16 10° NE daylight
01 Oct - 15:59:53 10° W 16:16:43 37° NW 16:28:57 10° NNE daylight
02 Oct - 01:14:47 10° NW 01:18:20 47° NE 01:22:15 10° ESE night (unlit)
02 Oct - 03:27:22 10° WSW 03:30:04 16° SSW 03:33:24 10° SSE visible
02 Oct - 10:09:35 10° SSW 10:22:19 28° SSE 10:37:48 10° E daylight
02 Oct - 12:21:38 10° SW 12:40:04 67° SE 12:58:35 10° ENE daylight
02 Oct - 14:37:46 10° WSW 14:57:09 58° NW 15:12:29 10° NE daylight
02 Oct - 17:01:58 10° WNW 17:13:34 21° NNW 17:22:26 10° N daylight
02 Oct - 23:59:36 10° N 00:01:58 15° NNE 00:04:12 10° ENE night (unlit)
03 Oct - 02:09:47 10° W 02:13:11 34° SSW 02:17:17 10° SE night (unlit)
03 Oct - 08:53:55 10° S 09:01:57 17° SSE 09:11:51 10° ESE daylight
03 Oct - 11:04:02 10° SW 11:19:45 46° SE 11:38:07 10° ENE daylight
03 Oct - 13:17:39 10° WSW 13:37:05 83° NW 13:54:55 10° NE daylight
03 Oct - 15:37:07 10° W 15:53:57 35° NW 16:06:54 10° NNE daylight
03 Oct - 18:09:33 10° NNW 18:11:13 10° NNW 18:12:49 10° NNW visible
